Miscellaneous Local Product
Issued by NWS Hastings, NE

Home | Current Version | Previous Version | Text Only | Print | Product List | Glossary On
Versions: 1 2 3 4 5 6 7 8 9 10 11 12 13 14 15 16 17 18 19 20 21 22 23 24 25 26 27 28 29 30 31 32 33 34 35 36 37 38 39 40 41 42 43 44 45 46 47 48 49 50
000
AXUS43 KGID 210902
MISGRI

GID CWA HOURLY WEATHER ROUNDUP
NATIONAL WEATHER SERVICE HASTINGS NE
400 AM CDT FRI JUL 21 2017

NOTE: "FAIR" INDICATES FEW OR NO CLOUDS BELOW 12,000 FEET WITH NO
SIGNIFICANT WEATHER AND/OR OBSTRUCTIONS TO VISIBILITY.

...SOUTH CENTRAL NEBRASKA...

CITY           SKY/WX    TMP DP  RH WIND       PRES   REMARKS
GRAND ISLAND   CLEAR     77  67  71 S13       29.86F
HASTINGS       CLEAR     78  63  59 S10       29.88F
KEARNEY        CLEAR     77  62  59 S15       29.86F
ORD            PTCLDY    75  67  76 SE7       29.81F
YORK           CLEAR     77  68  73 S10       29.87F
AURORA         CLEAR     77  67  71 S10       29.86F
LEXINGTON      CLEAR     78  60  54 SW8       29.85S
HOLDREGE       CLEAR     75  60  58 S10       29.86F
HEBRON         PTCLDY    79  67  67 S9        29.88F

...NEBRASKA PANHANDLE...

CITY           SKY/WX    TMP DP  RH WIND       PRES   REMARKS
CHADRON        CLOUDY    70  61  73 N3        29.88F
ALLIANCE       CLOUDY    69  58  67 CALM      29.94F
SCOTTSBLUFF    MOCLDY    71  57  61 W6        29.98F
SIDNEY         PTCLDY    73  57  57 NW10      30.02F

...WESTERN AND NORTH CENTRAL NEBRASKA...

CITY           SKY/WX    TMP DP  RH WIND       PRES   REMARKS
VALENTINE      CLOUDY    76  70  82 CALM      29.85F
AINSWORTH      CLOUDY    74  74 100 SE3       29.83F FOG
ONEILL         CLOUDY    77  73  87 SE9       29.81F
BROKEN BOW       N/A     76  63  64 S8        29.84F
IMPERIAL       PTCLDY    71  66  84 S5        29.90F
NORTH PLATTE   CLOUDY    71  68  90 NW5       29.86S
MCCOOK         CLOUDY    77  59  53 S9        29.86F

...EASTERN NEBRASKA...

CITY           SKY/WX    TMP DP  RH WIND       PRES   REMARKS
NORFOLK        CLOUDY    81  66  60 S15       29.82F
SO SIOUX CITY  CLOUDY    75  71  87 SE7       29.83F
TEKAMAH        CLOUDY    80  72  76 S15G21    29.84F THUNDER
COLUMBUS       CLOUDY    80  68  66 S14G22    29.84F
ALBION         PTCLDY    79  68  69 S10G17    29.82F
OMAHA EPPLEY   CLOUDY    84  71  65 S14       29.87F
OFFUTT AFB     CLOUDY    80  73  78 SE9       29.87F
MILLARD        CLOUDY    85  73  65 SE6       29.86F HX  92
LINCOLN        CLEAR     81  68  64 S13       29.86F
NEBRASKA CITY  CLEAR     80  74  82 S10       29.89F
BEATRICE       CLEAR     81  70  68 S8        29.88F
FALLS CITY     PTCLDY    81  72  74 S8        29.90F

...NORTHERN KANSAS...

CITY           SKY/WX    TMP DP  RH WIND       PRES   REMARKS
GOODLAND       CLEAR     72  57  59 W8        29.95S
HILL CITY      CLEAR     81  59  47 S15       29.88F
NORTON         SUNNY     75  52  43 S12       29.87F
PHILLIPSBURG   CLEAR     82  55  39 S9G16     29.87F
SMITH CENTER   CLEAR     75  59  57 S8        29.89F
HAYS           CLEAR     82  61  48 S17       29.90F
RUSSELL        CLEAR     79  60  52 S14       29.90S
CONCORDIA      CLEAR     81  67  62 S18       29.89F
SALINA         CLEAR     85  67  54 S17G25    29.91S
TOPEKA         CLEAR     82  74  76 S6        29.92F



USA.gov is the U.S. government's official web portal to all federal, state and local government web resources and services.